• en France
  • Liste des pays
  • À 7 jours
  • Température de l'eau
  • Carte satellitaire
  • Carte météo
  • Widgets météo
  • user-avatar
    Se connecter

    Météo par heure à Bogolyubovka

    Ce jour, 20 Juillet, Vendredi

    Heure Température Précipitation Vent Pression Humidité
    00:00 +19°C° 0 mm 3 m/s 740 mmHg 94%
    01:00 +19°C° 0 mm 3 m/s 741 mmHg 94%
    02:00 +19°C° 0 mm 3 m/s 741 mmHg 94%
    03:00 +19°C° 0 mm 3 m/s 741 mmHg 95%
    04:00 +19°C° 0 mm 3 m/s 741 mmHg 94%
    05:00 +19°C° 0 mm 3 m/s 741 mmHg 93%
    06:00 +20°C° 0 mm 3 m/s 741 mmHg 92%
    07:00 +21°C° 0,1 mm 3 m/s 742 mmHg 87%
    08:00 +24°C° 0,1 mm 3 m/s 742 mmHg 82%
    09:00 +26°C° 0 mm 3 m/s 742 mmHg 79%
    10:00 +27°C° 0,4 mm 3 m/s 742 mmHg 72%
    11:00 +28°C° 0,4 mm 3 m/s 742 mmHg 66%
    12:00 +29°C° 0,4 mm 3 m/s 742 mmHg 60%
    13:00 +30°C° 0,3 mm 3 m/s 742 mmHg 59%
    14:00 +30°C° 0,3 mm 3 m/s 742 mmHg 58%
    15:00 +30°C° 0,3 mm 4 m/s 742 mmHg 57%
    16:00 +30°C° 0,5 mm 3 m/s 742 mmHg 62%
    17:00 +29°C° 0,5 mm 3 m/s 742 mmHg 68%
    18:00 +28°C° 0,5 mm 2 m/s 742 mmHg 74%
    19:00 +26°C° 0,3 mm 2 m/s 742 mmHg 79%
    20:00 +25°C° 0,3 mm 2 m/s 742 mmHg 83%
    21:00 +23°C° 0,3 mm 2 m/s 742 mmHg 88%
    22:00 +23°C° 0 mm 2 m/s 742 mmHg 89%
    23:00 +21°C° 0 mm 2 m/s 742 mmHg 91%

    Demain, 21 Juillet, Samedi

    Heure Température Précipitation Vent Pression Humidité
    00:00 +20°C° 0 mm 2 m/s 742 mmHg 92%
    01:00 +20°C° 0 mm 2 m/s 742 mmHg 92%
    02:00 +20°C° 0 mm 2 m/s 742 mmHg 93%
    03:00 +19°C° 0 mm 2 m/s 742 mmHg 93%
    04:00 +20°C° 0,1 mm 2 m/s 742 mmHg 91%
    05:00 +20°C° 0,1 mm 2 m/s 742 mmHg 90%
    06:00 +20°C° 0,1 mm 2 m/s 742 mmHg 89%
    07:00 +23°C° 0,2 mm 2 m/s 742 mmHg 84%
    08:00 +25°C° 0,2 mm 2 m/s 742 mmHg 78%
    09:00 +26°C° 0,2 mm 2 m/s 742 mmHg 73%
    10:00 +27°C° 0,6 mm 3 m/s 742 mmHg 70%
    11:00 +28°C° 0,6 mm 3 m/s 742 mmHg 68%
    12:00 +28°C° 0,6 mm 4 m/s 742 mmHg 65%
    13:00 +28°C° 0,4 mm 4 m/s 742 mmHg 65%
    14:00 +29°C° 0,4 mm 4 m/s 742 mmHg 66%
    15:00 +29°C° 0,4 mm 5 m/s 742 mmHg 66%
    16:00 +28°C° 0,1 mm 5 m/s 742 mmHg 68%
    17:00 +27°C° 0,1 mm 4 m/s 742 mmHg 71%
    18:00 +27°C° 0,1 mm 4 m/s 742 mmHg 74%
    19:00 +26°C° 0 mm 4 m/s 742 mmHg 79%
    20:00 +23°C° 0 mm 4 m/s 742 mmHg 84%
    21:00 +22°C° 0 mm 3 m/s 742 mmHg 89%
    22:00 +21°C° 0 mm 3 m/s 742 mmHg 91%
    23:00 +21°C° 0 mm 3 m/s 743 mmHg 94%

    Après-demain, 22 Juillet, Dimanche

    Heure Température Précipitation Vent Pression Humidité
    00:00 +20°C° 0 mm 3 m/s 743 mmHg 96%
    01:00 +20°C° 0 mm 3 m/s 743 mmHg 96%
    02:00 +20°C° 0 mm 3 m/s 743 mmHg 97%
    03:00 +20°C° 0 mm 3 m/s 743 mmHg 97%
    04:00 +20°C° 0,1 mm 3 m/s 743 mmHg 95%
    05:00 +20°C° 0,1 mm 3 m/s 743 mmHg 94%
    06:00 +20°C° 0,1 mm 3 m/s 743 mmHg 92%
    07:00 +21°C° 0 mm 4 m/s 743 mmHg 88%
    08:00 +22°C° 0 mm 4 m/s 743 mmHg 84%
    09:00 +23°C° 0 mm 5 m/s 743 mmHg 80%
    10:00 +23°C° 0,1 mm 5 m/s 744 mmHg 79%
    11:00 +23°C° 0,1 mm 5 m/s 744 mmHg 78%
    12:00 +23°C° 0,1 mm 5 m/s 744 mmHg 76%
    13:00 +25°C° 0 mm 5 m/s 744 mmHg 74%
    14:00 +25°C° 0 mm 5 m/s 744 mmHg 72%
    15:00 +25°C° 0 mm 5 m/s 744 mmHg 70%
    16:00 +25°C° 0 mm 5 m/s 744 mmHg 73%
    17:00 +23°C° 0 mm 5 m/s 744 mmHg 75%
    18:00 +22°C° 0 mm 5 m/s 744 mmHg 77%
    19:00 +22°C° 0 mm 5 m/s 744 mmHg 80%
    20:00 +21°C° 0 mm 4 m/s 744 mmHg 82%
    21:00 +20°C° 0 mm 4 m/s 745 mmHg 84%
    22:00 +20°C° 0 mm 4 m/s 744 mmHg 86%
    23:00 +20°C° 0 mm 4 m/s 744 mmHg 87%

    23 Juillet, Lundi

    Heure Température Précipitation Vent Pression Humidité
    00:00 +19°C° 0 mm 4 m/s 744 mmHg 88%
    01:00 +19°C° 0 mm 4 m/s 744 mmHg 90%
    02:00 +19°C° 0 mm 3 m/s 744 mmHg 91%
    03:00 +18°C° 0 mm 3 m/s 744 mmHg 92%
    04:00 +18°C° 0 mm 4 m/s 744 mmHg 91%
    05:00 +19°C° 0 mm 4 m/s 744 mmHg 91%
    06:00 +19°C° 0 mm 4 m/s 744 mmHg 90%
    07:00 +19°C° 0 mm 4 m/s 744 mmHg 87%
    08:00 +20°C° 0 mm 4 m/s 744 mmHg 84%
    09:00 +20°C° 0 mm 5 m/s 744 mmHg 82%
    10:00 +21°C° 0,1 mm 5 m/s 744 mmHg 82%
    11:00 +21°C° 0,1 mm 5 m/s 744 mmHg 83%
    12:00 +21°C° 0,1 mm 5 m/s 744 mmHg 84%
    13:00 +21°C° 0,2 mm 5 m/s 744 mmHg 82%
    14:00 +22°C° 0,2 mm 5 m/s 744 mmHg 81%
    15:00 +22°C° 0,2 mm 6 m/s 744 mmHg 80%
    16:00 +22°C° 0,2 mm 5 m/s 744 mmHg 80%
    17:00 +22°C° 0,2 mm 5 m/s 745 mmHg 80%
    18:00 +22°C° 0,2 mm 5 m/s 745 mmHg 80%
    19:00 +21°C° 0,2 mm 5 m/s 745 mmHg 82%
    20:00 +21°C° 0,2 mm 5 m/s 745 mmHg 84%
    21:00 +20°C° 0,2 mm 5 m/s 745 mmHg 86%
    22:00 +20°C° 0,3 mm 5 m/s 745 mmHg 88%
    23:00 +19°C° 0,3 mm 5 m/s 745 mmHg 89%

    24 Juillet, Mardi

    Heure Température Précipitation Vent Pression Humidité
    00:00 +19°C° 0,3 mm 5 m/s 745 mmHg 91%
    01:00 +18°C° 0,5 mm 4 m/s 745 mmHg 92%
    02:00 +18°C° 0,5 mm 4 m/s 745 mmHg 92%
    03:00 +17°C° 0,5 mm 4 m/s 745 mmHg 93%
    04:00 +18°C° 0,3 mm 4 m/s 745 mmHg 93%
    05:00 +18°C° 0,3 mm 4 m/s 745 mmHg 94%
    06:00 +18°C° 0,3 mm 4 m/s 746 mmHg 94%
    07:00 +19°C° 0 mm 4 m/s 746 mmHg 91%
    08:00 +20°C° 0 mm 4 m/s 746 mmHg 89%
    09:00 +21°C° 0 mm 4 m/s 746 mmHg 87%
    10:00 +22°C° 0 mm 4 m/s 746 mmHg 82%
    11:00 +25°C° 0 mm 4 m/s 747 mmHg 78%
    12:00 +26°C° 0 mm 4 m/s 747 mmHg 73%
    13:00 +27°C° 0,4 mm 4 m/s 747 mmHg 71%
    14:00 +28°C° 0,4 mm 4 m/s 747 mmHg 68%
    15:00 +28°C° 0,4 mm 4 m/s 747 mmHg 66%
    16:00 +28°C° 0,4 mm 4 m/s 747 mmHg 68%
    17:00 +27°C° 0,4 mm 4 m/s 747 mmHg 71%
    18:00 +27°C° 0,4 mm 3 m/s 747 mmHg 73%
    19:00 +26°C° 0 mm 3 m/s 747 mmHg 78%
    20:00 +24°C° 0 mm 3 m/s 748 mmHg 82%
    21:00 +22°C° 0 mm 3 m/s 748 mmHg 86%
    22:00 +21°C° 0 mm 3 m/s 748 mmHg 85%
    23:00 +20°C° 0 mm 3 m/s 748 mmHg 84%

    25 Juillet, Mercredi

    Heure Température Précipitation Vent Pression Humidité
    00:00 +20°C° 0 mm 3 m/s 748 mmHg 84%
    01:00 +19°C° 0,2 mm 3 m/s 748 mmHg 85%
    02:00 +19°C° 0,2 mm 3 m/s 748 mmHg 86%
    03:00 +18°C° 0,2 mm 3 m/s 748 mmHg 87%
    04:00 +18°C° 0,4 mm 3 m/s 749 mmHg 87%
    05:00 +18°C° 0,4 mm 3 m/s 749 mmHg 88%
    06:00 +19°C° 0,4 mm 3 m/s 750 mmHg 88%
    07:00 +20°C° 0,1 mm 3 m/s 750 mmHg 85%
    08:00 +20°C° 0,1 mm 3 m/s 750 mmHg 82%
    09:00 +21°C° 0,1 mm 3 m/s 750 mmHg 79%
    10:00 +22°C° 0 mm 3 m/s 751 mmHg 73%
    11:00 +23°C° 0 mm 4 m/s 751 mmHg 66%
    12:00 +25°C° 0 mm 4 m/s 751 mmHg 60%
    13:00 +23°C° 0,3 mm 4 m/s 751 mmHg 66%
    14:00 +22°C° 0,3 mm 4 m/s 751 mmHg 71%
    15:00 +20°C° 0,3 mm 4 m/s 751 mmHg 77%
    16:00 +20°C° 0,1 mm 4 m/s 750 mmHg 78%
    17:00 +20°C° 0,1 mm 4 m/s 750 mmHg 79%
    18:00 +20°C° 0,1 mm 4 m/s 750 mmHg 81%
    19:00 +20°C° 0 mm 4 m/s 750 mmHg 79%
    20:00 +20°C° 0 mm 4 m/s 750 mmHg 76%
    21:00 +20°C° 0 mm 4 m/s 750 mmHg 74%
    22:00 +20°C° 0,4 mm 4 m/s 750 mmHg 74%
    23:00 +20°C° 0,4 mm 4 m/s 749 mmHg 73%
    Voir plus